Location: Cluny
(50.9333°N, 112.8167°W)
Time: 14:38:16
(UTC-06:00)

Hamsat - Visible Passes

Search period start: 23 May 2017 00:00
Search period end: 02 June 2017 00:00
Orbit: 586 x 618 km, 97.6° (Epoch: 22 May)

Date Brightness Start Highest point End Pass type
(mag) Time Alt. Az. Time Alt. Az. Time Alt. Az.
23 May ? 04:36:25 10° NE 04:39:08 16° E 04:41:48 10° SE visible
30 May ? 04:23:40 10° ENE 04:25:23 12° E 04:27:05 10° ESE visible
31 May ? 04:34:41 10° NE 04:37:16 16° E 04:39:50 10° SE visible
